Wind_Speed
12 12 13 13 13 13 13 13 13 13 13 13 13 12 12 12 11 11 10 8 7 6 5 4 4 4 4 4 5 4 5 5 6 6 7 7 7 8 9 10 10 9 7 3 2 4 5 5 6 7 7 7 9 8 7 6 4 3 1 2 1 5 6 6 7 6 6 6 4 4 8 7 5 6 6 6 6 6 7 7 7 8 9 8 6 5 4 5
10 10 11 11 12 12 12 12 12 12 12 12 12 11 11 11 11 11 10 10 9 7 6 5 5 5 5 5 5 5 6 6 6 6 7 6 7 7 8 9 9 8 6 4 3 3 4 4 5 6 8 4 8 10 9 9 8 7 4 3 2 4 5 7 8 7 6 5 4 4 7 6 5 6 6 5 6 6 5 6 7 9 9 8 6 5 4 5
8 9 9 10 10 10 11 11 11 11 11 12 12 11 11 10 10 10 10 10 10 9 8 6 5 5 5 5 5 5 7 7 6 7 7 6 6 7 7 8 8 7 6 5 4 4 5 3 2 5 8 4 4 10 12 11 10 10 8 5 5 5 4 5 6 7 7 6 4 5 6 5 4 4 5 5 6 6 5 6 7 8 8 7 5 4 4 5
5 7 8 8 9 9 9 10 10 10 10 11 11 11 11 11 11 10 10 10 10 10 9 8 7 5 5 5 5 5 6 7 6 8 8 6 6 6 7 8 8 6 5 6 5 6 7 5 4 3 7 6 2 8 11 11 11 11 9 8 6 6 5 3 3 4 8 6 5 5 4 4 3 4 5 5 6 6 5 6 7 7 7 6 6 5 5 5
3 4 5 7 8 8 9 9 9 9 9 10 11 11 12 12 12 11 10 10 9 9 9 9 8 7 6 5 5 5 6 6 6 7 7 6 5 5 6 7 8 7 6 6 6 7 8 8 6 3 5 6 1 5 8 9 10 11 11 10 7 6 6 3 2 4 9 7 5 4 2 2 3 4 4 6 6 6 5 5 6 6 7 6 6 6 6 6
1 2 3 5 6 7 8 8 8 8 8 9 9 10 11 12 12 12 11 10 9 9 9 9 9 8 7 6 5 5 6 6 6 7 6 6 5 5 6 6 8 7 7 7 6 7 5 7 7 3 4 4 1 5 7 7 8 10 11 12 11 9 7 5 6 8 10 7 6 5 3 2 2 3 3 5 6 5 4 3 4 6 7 7 6 6 7 6
1 1 2 3 5 6 7 7 7 7 7 8 8 9 10 11 12 13 12 11 10 10 9 9 9 9 8 7 5 5 7 6 6 6 6 6 6 6 6 6 7 7 8 7 6 7 5 2 3 2 4 3 2 4 6 7 7 8 10 12 13 12 11 10 10 11 10 8 7 7 5 2 2 3 3 4 4 4 5 4 3 5 6 7 7 6 7 6
1 1 1 2 4 5 6 7 7 7 7 7 8 8 9 10 12 13 13 12 11 10 10 9 9 9 8 7 6 6 6 5 4 5 5 5 6 6 7 7 7 7 8 8 7 7 6 3 2 3 5 1 3 3 5 6 5 5 8 9 10 10 9 10 10 10 10 10 10 10 9 6 3 4 1 2 2 3 5 3 2 4 6 6 7 6 6 4
1 1 0 2 3 5 6 6 7 7 7 7 7 8 8 9 10 12 13 13 12 12 11 10 10 9 9 8 8 7 5 4 4 4 4 5 6 7 8 8 6 7 8 7 7 6 6 5 4 5 5 1 2 2 4 4 3 4 7 6 6 7 5 6 8 9 10 11 11 10 9 8 7 6 1 1 2 2 3 3 1 3 5 6 7 6 4 4
1 1 1 2 3 4 6 6 7 7 7 7 7 8 8 8 9 11 13 13 13 13 12 11 11 10 9 9 8 7 6 4 4 4 4 4 5 7 8 8 7 7 8 7 7 7 6 6 4 6 5 3 3 2 2 2 2 4 6 5 5 5 5 5 6 7 9 9 9 9 8 8 9 10 3 2 0 1 1 2 2 2 4 5 5 5 4 4
2 2 3 4 4 5 6 6 7 7 7 7 8 8 8 8 8 9 11 13 14 14 13 12 12 11 10 9 9 8 6 5 4 4 4 3 4 6 8 9 8 8 8 7 6 6 6 6 7 6 5 5 5 3 2 1 1 4 5 5 4 5 6 6 6 6 7 6 7 7 7 7 8 11 8 1 2 1 1 1 3 1 3 4 4 5 4 4
4 4 5 5 6 6 7 7 7 7 8 8 8 8 8 8 8 9 10 11 13 14 15 14 13 13 11 10 9 9 7 6 5 5 5 4 3 5 7 9 9 9 8 8 7 7 7 7 7 6 5 5 6 5 3 3 2 4 5 5 4 4 5 6 6 6 6 5 5 5 6 7 7 9 11 5 3 3 3 1 2 2 3 4 4 5 4 4
6 6 7 7 8 8 8 8 8 8 9 9 9 9 9 9 9 9 9 10 12 13 15 15 14 14 12 11 10 9 9 7 5 5 5 5 4 4 6 8 9 9 9 9 8 7 8 8 7 6 5 5 6 5 4 4 4 5 5 5 4 3 3 4 5 6 5 4 4 5 6 6 7 8 10 8 2 5 3 2 0 1 2 3 3 4 4 4
8 9 9 9 9 9 10 9 10 10 10 10 10 10 10 10 10 9 9 9 11 12 14 15 15 14 13 12 10 9 9 9 7 5 5 5 5 4 5 7 9 10 10 10 9 8 9 9 7 6 4 6 6 4 5 5 4 5 4 4 3 2 2 1 3 4 4 3 3 4 5 5 7 8 10 9 2 4 4 3 2 2 2 3 2 3 4 3
9 10 10 11 11 11 11 11 11 11 11 11 11 11 11 10 10 10 9 9 10 11 12 14 15 14 13 13 11 9 9 8 8 6 5 5 5 4 5 6 8 9 10 10 10 10 10 9 7 6 4 6 8 6 6 5 4 3 5 5 3 1 1 1 2 4 4 3 3 3 4 4 7 8 9 8 4 2 4 3 3 3 2 3 2 3 3 2
11 11 11 12 12 12 12 12 13 13 13 13 13 12 12 11 11 11 10 10 10 10 11 13 14 15 14 13 11 10 9 8 7 7 6 5 5 5 5 6 8 8 9 10 10 11 10 9 7 5 4 5 9 9 8 7 5 4 5 5 4 3 4 2 1 3 5 3 2 4 5 5 6 7 7 6 4 0 2 2 3 4 3 3 1 2 1 1
12 12 13 13 13 14 14 14 14 14 14 14 14 14 13 12 12 12 11 11 10 10 11 12 14 14 14 14 12 11 10 8 6 6 5 4 5 5 5 5 6 7 8 9 10 10 10 9 6 4 5 6 9 12 11 10 9 7 4 3 2 3 6 4 2 3 4 4 3 5 6 5 4 5 6 6 3 1 1 2 3 4 4 3 2 2 1 1
14 14 14 14 14 15 15 15 15 15 15 15 15 15 14 13 13 13 12 11 11 11 11 12 14 14 14 14 13 12 10 8 7 6 5 4 4 5 5 6 5 6 7 7 9 10 10 9 7 8 10 9 10 13 14 13 10 9 6 4 2 3 5 4 2 1 3 4 4 6 7 5 3 3 5 6 4 3 2 2 3 4 4 4 4 4 3 1
16 16 16 16 16 16 16 16 17 17 17 16 16 15 15 14 14 14 13 13 12 11 12 13 14 14 14 14 14 13 11 9 7 6 5 4 4 4 5 6 5 5 6 6 8 10 10 9 10 13 15 13 12 12 12 11 7 7 6 4 3 4 2 0 2 2 2 4 4 5 6 5 3 3 4 6 6 5 3 2 3 4 4 5 5 4 4 3
18 18 18 18 18 18 18 18 18 18 18 18 17 16 16 15 14 14 14 13 13 12 13 14 14 15 14 14 13 11 10 9 7 5 4 4 3 3 4 6 6 5 5 6 7 8 9 11 14 16 16 14 12 10 9 8 4 3 3 1 3 4 4 3 5 5 3 4 5 5 5 5 4 3 4 6 7 7 5 4 3 3 4 5 5 4 4 3
20 20 20 20 20 20 20 19 19 19 19 19 18 17 16 16 14 13 14 14 13 13 14 15 15 16 14 13 12 9 9 10 7 4 4 4 4 3 3 5 5 6 6 6 5 6 8 11 16 16 15 14 12 11 8 5 2 5 5 3 5 5 8 7 6 6 5 4 5 5 3 4 5 4 5 6 7 8 8 7 5 4 4 5 6 4 5 5
21 21 21 22 22 22 21 21 20 20 19 18 18 17 16 15 14 13 14 15 16 15 15 17 16 16 14 13 10 7 8 9 6 4 4 5 5 3 3 4 5 6 5 4 5 7 8 11 15 15 15 15 16 13 8 5 5 9 13 9 7 8 7 5 5 6 7 6 5 3 2 2 5 4 5 6 6 7 9 10 8 6 5 5 6 5 5 6
22 22 22 22 22 22 22 22 21 20 19 17 16 17 17 17 17 17 16 16 19 19 17 18 17 16 15 12 10 8 8 8 7 6 4 5 5 3 3 3 4 6 5 4 6 8 11 15 17 18 18 19 18 13 9 10 10 13 18 12 11 14 8 5 5 7 9 8 5 3 3 2 4 3 3 4 5 6 8 9 6 7 6 6 7 7 6 7
21 21 21 22 21 21 20 21 22 20 19 18 17 19 21 22 22 22 20 19 21 21 18 18 17 16 14 11 10 10 9 8 7 7 5 5 6 4 3 3 4 6 5 7 9 9 12 18 20 20 20 20 18 14 12 14 15 21 21 9 5 11 8 4 5 8 10 10 8 4 2 2 3 2 3 4 5 5 6 6 2 6 7 7 8 8 7 7
21 20 21 21 21 21 20 21 23 22 22 21 22 24 26 26 25 25 24 22 22 21 19 17 17 15 12 11 11 10 10 8 6 7 6 5 5 4 3 3 4 6 6 9 12 12 14 18 18 18 19 20 19 15 11 12 15 19 19 11 6 6 3 3 5 9 11 11 10 7 4 3 3 4 5 5 5 4 4 4 1 4 7 8 10 10 8 7
22 22 23 23 24 25 24 24 26 27 26 26 26 28 29 29 28 27 27 23 21 21 19 16 15 14 12 12 11 11 11 7 6 7 6 5 5 3 3 3 4 6 7 9 12 13 14 16 17 17 19 18 15 13 11 9 8 8 10 17 14 8 4 4 7 12 13 13 14 11 7 5 4 5 5 5 6 5 4 4 4 5 8 9 12 12 10 9
27 26 27 28 27 29 29 28 29 30 30 29 30 31 31 30 29 28 26 24 21 20 19 17 15 14 12 13 13 13 11 7 6 7 5 5 5 3 2 2 4 7 8 8 10 12 14 14 13 12 10 6 5 8 8 8 7 4 7 13 12 9 9 10 12 16 17 17 16 14 10 7 7 7 6 6 7 6 5 5 5 7 9 10 13 14 11 9
30 29 30 31 30 30 32 31 30 31 30 30 31 31 31 29 29 28 26 24 21 18 18 18 16 14 13 15 14 13 11 8 6 5 6 6 5 3 2 3 5 6 6 6 8 11 14 13 9 6 3 2 4 8 6 5 8 9 11 12 11 13 16 14 11 15 19 18 17 16 14 9 7 7 7 8 8 7 6 4 5 8 9 10 13 14 12 10
31 29 30 32 30 29 31 30 29 29 28 28 28 28 28 27 26 26 24 23 21 18 17 17 16 13 14 15 14 13 13 9 5 5 6 7 6 4 3 3 5 5 4 4 5 6 8 9 7 1 1 5 8 8 11 16 16 15 19 18 16 17 18 15 11 14 20 19 19 20 18 12 8 7 9 11 10 9 7 4 4 7 8 10 14 14 12 11
28 27 27 29 29 27 27 27 26 25 24 24 24 24 24 23 23 22 20 20 19 15 15 16 15 13 13 14 14 14 13 10 7 6 6 7 7 4 3 4 4 5 4 3 3 3 4 9 10 8 5 2 5 6 9 17 19 18 20 20 18 19 22 22 18 18 21 22 22 22 20 15 9 8 10 13 11 10 10 7 6 6 7 9 14 15 12 11
26 25 24 27 28 26 25 24 24 24 23 22 22 22 20 20 20 16 14 15 13 11 12 13 13 12 11 13 14 14 14 11 8 6 6 6 6 5 5 5 4 5 5 5 6 7 11 13 12 10 9 6 2 3 7 14 19 18 16 16 16 15 18 23 26 25 24 23 24 22 18 13 9 8 11 13 11 10 11 10 9 6 6 7 13 14 11 11
26 25 25 26 27 26 24 23 24 24 23 22 21 20 19 19 15 10 11 12 9 10 11 10 10 9 7 6 6 8 12 13 10 7 7 6 6 7 7 5 4 4 6 7 9 12 16 14 10 10 8 6 6 2 5 8 13 15 15 16 16 13 11 16 24 27 23 20 19 17 14 11 8 9 11 12 11 11 11 11 9 6 4 6 10 10 10 11
26 26 26 27 27 27 25 24 25 24 23 23 21 20 20 16 11 10 11 10 11 13 12 12 11 9 5 4 1 3 7 13 12 9 8 8 8 9 7 6 5 4 5 6 9 14 14 10 6 8 6 4 6 1 8 8 8 10 14 18 18 14 10 10 16 19 16 13 12 11 11 10 9 9 10 10 11 10 10 9 8 6 4 4 6 8 10 12
26 26 28 28 27 27 27 25 26 25 24 24 22 21 20 14 11 12 10 9 14 16 17 17 15 10 7 8 4 3 5 13 14 10 9 10 10 9 6 5 6 6 7 7 9 13 13 7 2 5 6 2 5 2 6 8 8 9 10 14 17 15 11 9 11 13 11 10 9 8 8 9 9 8 7 8 9 9 8 8 7 6 4 4 5 6 9 12
26 27 28 29 28 27 28 26 27 27 26 25 24 22 19 13 12 13 11 12 17 20 21 20 15 12 8 6 2 2 4 10 14 12 10 11 8 6 5 4 6 7 8 11 10 10 13 7 1 4 6 2 6 6 6 6 8 9 9 11 14 15 12 9 10 11 10 9 9 7 7 8 7 5 4 4 6 8 8 7 7 7 6 5 5 6 7 10
25 26 27 29 28 28 28 27 27 27 26 26 25 21 17 15 16 17 16 19 22 23 21 18 15 11 7 2 4 4 7 8 11 10 9 10 5 3 4 4 6 7 11 14 9 7 10 7 2 3 3 5 6 8 8 9 10 7 7 10 13 14 11 8 9 10 9 8 8 7 7 7 6 5 5 4 4 7 8 7 7 6 7 7 7 7 7 8
24 24 25 27 27 26 26 26 26 26 26 26 23 19 16 17 20 20 20 22 22 21 19 18 17 10 7 7 2 2 7 7 8 7 3 4 2 1 3 2 2 7 14 16 9 6 7 6 6 4 5 5 5 7 7 12 12 10 9 10 12 12 10 9 11 9 5 5 7 6 7 6 3 2 5 5 4 5 6 6 6 6 7 8 8 8 8 9
23 22 23 25 25 24 23 23 23 23 24 23 20 18 17 19 21 22 23 24 22 20 19 20 18 14 15 15 11 8 7 5 8 9 5 2 2 3 1 1 2 5 14 16 9 7 6 6 6 4 2 4 6 4 4 9 11 11 13 14 12 9 7 8 10 7 2 3 6 6 7 6 4 4 6 7 6 5 5 6 6 6 7 8 9 9 9 9
22 21 21 23 22 21 21 20 20 20 20 19 17 18 18 20 23 25 26 26 24 22 22 23 21 20 22 20 16 15 13 10 9 8 5 5 2 3 2 1 2 2 10 18 13 8 5 4 4 3 2 5 6 2 4 7 6 12 14 13 9 6 6 4 5 7 4 4 7 8 9 8 6 6 6 7 8 8 7 7 6 6 6 7 7 9 10 10
22 20 21 22 21 20 19 18 18 17 17 17 17 19 20 22 25 26 27 27 26 25 24 25 25 24 26 24 22 22 20 17 15 13 10 7 3 1 2 1 3 2 7 17 15 11 8 6 5 5 6 7 7 1 3 8 5 13 11 7 6 6 7 5 5 7 6 8 10 12 13 11 9 7 7 8 9 7 6 5 5 5 6 7 7 8 10 11
23 21 20 22 21 19 18 16 15 15 16 17 18 19 21 23 25 27 28 27 26 25 24 26 28 28 28 26 26 28 26 22 19 17 16 12 5 2 4 4 7 6 6 12 13 15 14 11 9 8 8 8 7 3 2 7 4 13 10 5 4 8 8 7 7 8 9 10 12 15 16 14 12 10 10 11 10 8 6 5 5 7 7 8 9 10 10 9
26 23 21 23 21 19 18 16 15 15 17 18 18 19 21 23 24 26 27 26 26 25 26 30 33 31 28 25 27 31 30 24 20 19 20 18 12 7 7 8 10 10 8 8 9 14 17 17 16 13 13 11 7 5 2 3 5 13 12 5 6 10 10 7 8 11 12 13 15 17 17 16 15 14 14 12 11 10 8 7 7 8 8 7 8 9 7 5
28 26 24 25 23 19 19 17 16 16 17 17 18 19 20 22 24 27 27 26 27 28 29 33 35 33 29 26 28 33 33 27 23 23 23 21 18 15 11 9 11 13 12 10 11 13 16 19 21 19 17 16 14 10 8 7 7 11 13 10 7 9 11 9 11 14 13 14 18 19 18 18 17 16 15 13 10 8 7 7 7 6 6 6 6 7 6 6
30 29 27 26 23 21 20 19 18 18 18 17 17 18 18 20 23 27 28 28 29 30 32 34 36 34 30 28 30 34 35 31 28 28 27 23 21 20 17 13 13 16 16 13 13 15 17 20 23 23 19 16 16 15 15 15 12 11 16 16 10 10 12 11 13 14 13 14 18 18 19 20 20 18 16 15 12 7 5 4 5 5 6 6 6 7 8 9
32 32 29 25 23 22 22 23 23 22 20 19 19 20 19 20 23 27 29 30 31 32 34 35 36 35 33 31 31 32 33 33 32 31 30 27 23 22 23 23 21 19 19 18 16 16 20 23 25 25 20 16 17 18 19 21 17 14 17 18 15 15 16 16 17 17 16 17 19 20 20 20 20 19 18 17 13 7 4 4 6 6 6 7 7 8 8 9
33 34 32 27 25 25 26 25 24 24 22 21 21 22 22 22 23 27 29 29 31 32 31 31 32 33 33 34 35 35 33 33 33 32 32 30 25 23 24 25 23 21 22 24 21 18 23 25 24 24 23 21 20 21 23 24 22 19 19 20 20 20 20 20 19 18 18 19 22 24 25 24 22 21 19 15 10 7 5 6 7 7 7 7 7 7 8 9
33 34 33 30 28 29 28 25 24 24 24 22 21 21 21 21 23 26 28 29 31 31 30 29 29 31 31 32 37 41 39 36 35 33 34 33 30 28 27 26 25 23 23 24 21 19 25 27 24 24 25 26 25 23 24 26 26 25 24 22 22 23 25 24 18 15 15 16 18 22 25 26 25 23 18 13 9 8 7 7 7 8 8 7 6 7 8 9
34 34 34 32 31 31 30 28 26 26 26 25 23 20 19 20 23 26 28 30 32 33 32 31 30 31 31 32 34 40 43 42 39 37 37 35 34 34 30 27 27 27 25 22 21 21 24 25 24 24 24 26 28 26 24 23 25 28 28 24 21 23 25 21 14 12 14 15 16 19 21 22 23 22 17 11 10 11 10 9 8 8 9 8 7 7 7 8
33 35 35 34 33 33 33 33 30 27 27 27 24 21 20 21 23 24 24 26 29 31 32 33 33 31 31 33 33 35 40 44 43 42 41 38 36 37 33 27 30 32 28 24 24 26 26 24 25 26 25 27 29 30 29 25 22 24 25 22 19 19 16 12 11 14 17 17 18 19 18 18 19 19 17 13 13 12 10 10 10 10 11 10 9 7 7 7
33 34 35 35 34 33 34 35 33 30 29 28 26 25 24 23 22 22 22 23 25 27 28 31 34 34 33 34 34 35 38 41 43 45 47 42 38 38 36 30 31 36 36 31 28 29 27 24 25 26 26 28 30 31 31 27 19 15 18 22 20 14 10 11 14 18 20 20 21 22 21 19 16 13 14 13 13 13 12 12 12 13 13 13 12 10 9 9
33 33 35 36 35 34 35 36 36 32 30 30 30 29 29 27 24 23 24 25 25 26 27 28 31 34 35 36 36 37 38 39 41 44 47 45 41 41 41 36 32 34 38 35 31 31 29 28 28 27 24 26 29 28 25 21 15 11 13 21 22 14 11 13 16 18 20 22 24 27 26 22 17 13 12 13 13 13 14 15 16 16 16 15 15 14 13 12
34 33 35 36 35 34 34 36 37 35 33 33 34 33 31 30 27 25 27 28 28 28 28 27 27 29 33 36 37 38 40 40 40 41 44 46 45 45 45 43 38 37 38 37 35 33 31 30 31 29 25 24 26 27 23 18 15 14 14 20 23 18 15 15 16 19 23 26 28 30 30 26 23 19 16 15 15 14 14 16 18 19 18 17 17 17 16 15
Wind_Direction
71 69 68 67 66 65 64 62 61 59 58 56 53 51 48 45 42 39 35 31 27 20 8 355 342 331 317 304 297 293 293 289 285 284 281 280 276 272 269 269 272 279 287 298 318 304 318 341 8 7 333 352 37 78 92 64 51 12 343 184 192 165 156 149 136 114 110 107 90 61 62 51 47 64 57 53 55 55 69 65 59 65 61 57 63 67 81 104
70 67 64 63 62 62 61 60 60 58 56 54 51 49 45 42 38 34 31 27 25 21 14 0 345 337 330 317 300 285 281 281 287 290 284 281 276 274 273 270 272 273 278 278 262 264 285 322 9 346 301 311 36 67 75 50 45 36 46 122 121 134 139 148 143 123 114 115 103 70 64 56 45 57 52 47 52 52 62 56 46 51 53 55 60 66 76 90
68 64 60 58 56 55 56 56 56 55 54 52 49 47 43 40 35 31 27 24 21 18 14 6 353 339 333 329 318 297 279 276 282 286 285 284 277 275 275 273 276 275 267 258 248 251 263 286 329 303 282 265 50 61 62 45 42 45 54 75 72 75 95 136 139 128 131 126 105 82 67 63 57 59 45 38 47 39 40 55 48 44 51 62 67 67 76 82
66 61 56 52 50 48 48 48 50 50 50 48 46 44 41 37 32 27 23 21 19 16 14 9 0 345 334 329 329 316 290 286 280 274 278 284 281 276 274 275 281 280 268 253 234 222 228 241 235 256 271 254 89 62 56 46 42 47 52 50 53 60 59 104 128 142 145 122 97 93 82 74 54 60 55 38 48 38 26 49 47 38 45 64 79 81 80 80
69 62 53 47 43 40 39 39 41 42 43 43 42 41 38 35 31 26 22 18 15 14 13 11 6 356 341 329 329 321 301 298 287 277 273 270 271 271 269 273 278 280 276 264 246 222 206 211 216 212 249 247 131 60 53 47 43 45 46 41 47 57 52 86 109 147 151 122 90 80 79 99 57 66 66 37 43 50 40 40 37 31 34 53 79 89 86 77
83 67 53 42 36 32 30 29 30 32 33 34 35 35 33 32 29 26 22 17 12 9 8 8 7 3 354 340 325 310 299 297 299 293 277 263 261 262 266 269 273 277 277 270 267 259 223 195 195 195 234 237 44 50 56 54 49 48 47 45 50 50 53 78 85 105 120 103 74 51 35 162 116 80 84 47 36 52 56 33 23 26 28 44 65 83 93 90
166 88 55 34 25 20 19 19 19 20 21 22 24 26 26 27 27 26 23 18 12 7 4 5 6 5 1 352 330 306 301 305 308 301 283 266 256 254 260 264 267 270 271 269 267 269 275 228 172 195 251 234 67 58 67 60 50 54 55 49 50 51 60 75 80 88 92 77 62 49 41 129 129 42 74 70 36 39 46 31 21 22 24 41 53 66 87 95
185 150 53 16 11 7 5 6 8 9 9 9 11 14 17 20 22 23 22 19 15 9 5 3 4 4 360 353 343 324 314 311 304 297 285 266 251 246 249 255 260 262 263 267 267 267 280 279 209 237 258 223 87 77 75 56 34 52 60 47 46 52 60 70 73 72 68 62 57 49 48 64 49 16 42 108 50 45 44 40 17 16 29 45 44 49 71 83
176 183 276 339 348 350 351 352 355 356 357 358 359 2 5 11 16 19 20 19 17 14 9 5 2 1 355 349 345 338 329 311 292 291 289 267 248 240 241 247 252 256 259 263 265 263 260 249 208 212 240 223 131 105 81 56 23 51 60 44 38 50 66 72 63 57 52 48 46 44 45 46 31 19 326 221 40 62 52 49 13 16 42 43 36 40 53 63
200 237 274 306 322 330 335 336 339 341 343 345 347 351 354 0 7 13 16 17 17 14 11 8 3 358 351 343 341 340 337 320 294 290 291 271 250 239 239 243 244 250 257 257 259 262 265 268 244 214 218 227 205 161 110 74 28 51 57 42 31 42 70 78 61 52 49 41 34 35 33 26 24 26 19 238 337 59 41 42 27 25 49 40 30 37 36 34
271 278 287 297 307 313 318 320 323 327 330 332 335 339 344 349 356 4 10 13 14 12 10 9 5 1 352 343 340 337 336 331 305 287 283 277 257 242 238 242 241 241 249 253 250 251 255 263 262 239 217 217 213 200 181 179 54 54 55 44 31 41 64 73 70 60 50 39 30 31 22 9 14 22 21 288 194 171 229 32 43 28 29 35 30 30 35 25
288 290 293 296 300 303 305 307 310 314 317 320 324 328 333 339 345 352 359 5 9 9 7 7 5 2 357 348 341 332 328 330 322 295 277 271 264 245 238 240 240 236 241 246 242 240 240 241 246 242 215 202 208 204 188 187 140 62 50 51 42 44 69 79 81 72 56 38 27 31 19 2 0 8 13 7 210 202 217 206 52 36 2 31 38 23 34 27
293 294 294 296 297 298 298 300 302 305 308 310 313 318 323 328 334 340 346 354 360 3 4 3 3 2 359 353 345 336 326 323 326 308 283 270 261 249 240 240 240 236 235 240 239 236 239 240 242 243 209 186 202 199 185 187 133 78 52 58 53 35 67 90 92 82 69 50 28 26 26 10 352 349 2 6 237 212 210 197 34 18 357 20 37 20 31 32
293 294 295 295 295 295 295 296 297 299 301 302 305 308 313 318 324 329 334 341 349 354 357 359 359 358 357 355 349 341 332 326 324 315 295 272 258 251 243 241 242 239 236 236 232 229 237 240 240 241 203 173 181 189 202 193 127 93 79 75 66 41 42 79 116 100 82 67 38 10 19 17 353 343 351 1 346 227 214 193 252 295 352 8 17 20 30 40
289 292 294 294 294 294 294 294 295 295 297 298 299 301 305 310 315 320 323 329 337 343 349 352 354 353 353 352 348 342 339 333 322 316 305 281 264 253 242 240 240 239 238 233 227 227 235 238 235 231 205 173 164 175 207 186 130 117 103 99 108 144 204 245 159 116 84 69 42 358 342 359 354 344 343 355 4 248 208 201 251 256 304 348 359 19 29 35
287 288 290 292 293 294 293 293 293 293 294 295 296 297 299 303 308 311 314 319 325 332 339 343 346 348 348 347 345 342 341 336 323 316 308 289 266 253 245 241 241 242 239 233 227 226 230 233 231 222 199 176 161 164 195 190 163 150 109 112 136 176 211 203 151 115 78 51 21 354 331 346 355 344 340 357 14 307 202 234 261 242 265 308 324 349 8 11
285 286 288 289 291 292 293 293 292 293 293 293 294 294 296 299 301 304 307 311 315 321 328 333 338 341 343 342 341 340 337 334 329 322 312 294 267 252 246 243 242 244 243 234 225 221 227 226 209 186 167 163 162 159 178 189 177 159 117 80 122 178 211 200 153 111 65 28 358 341 330 341 352 339 336 353 10 320 265 297 277 246 256 276 294 303 290 354
283 285 285 286 288 289 291 292 292 293 292 293 293 292 294 295 297 299 302 305 308 313 318 325 330 334 339 337 333 335 332 329 333 333 327 305 275 251 242 240 236 239 241 234 222 217 222 215 178 158 147 151 173 172 174 181 186 178 133 39 336 204 202 198 186 139 50 19 353 332 331 337 326 315 325 336 343 317 293 294 277 252 251 265 287 302 293 309
282 282 283 284 285 286 288 290 291 292 292 292 291 291 293 292 294 297 298 302 304 307 312 317 322 327 333 331 327 329 325 319 319 328 340 324 292 259 238 236 234 236 237 230 218 212 212 199 171 157 151 160 185 187 183 177 189 194 138 62 295 209 178 299 242 233 15 8 345 328 327 325 295 294 320 321 321 318 306 291 268 247 246 254 268 295 299 299
279 280 282 283 284 285 287 288 289 290 290 290 290 290 291 291 292 295 297 300 302 305 309 312 317 320 326 325 321 323 313 298 292 307 341 340 307 273 244 237 231 227 224 221 213 208 207 188 173 169 167 173 177 177 182 173 187 242 161 115 291 234 230 270 252 253 306 338 333 328 320 312 290 295 323 312 312 319 316 303 273 250 257 258 258 275 289 284
277 278 280 281 283 284 286 287 287 286 286 287 288 289 289 290 292 295 297 299 299 305 307 308 312 314 318 318 315 317 303 288 285 308 342 344 320 290 256 239 227 221 215 214 200 191 201 190 181 183 182 183 186 190 201 191 207 282 262 259 304 253 224 236 250 269 294 312 321 312 296 298 291 299 316 306 309 320 318 304 281 259 249 250 256 264 276 276
277 278 279 281 282 284 285 285 285 284 284 284 286 288 289 290 291 290 293 298 299 302 304 304 306 307 311 312 307 314 307 291 292 320 341 338 323 302 257 236 227 224 211 202 196 177 183 187 180 182 185 192 206 215 226 205 190 255 258 251 262 248 228 247 274 287 294 308 313 271 189 266 279 287 301 301 301 309 317 305 277 257 239 230 243 253 262 271
276 277 278 279 280 282 283 283 283 282 282 282 284 286 285 283 283 283 288 294 295 297 300 299 299 300 306 307 298 305 305 293 300 319 336 332 318 304 260 238 226 224 193 175 200 181 171 176 171 175 186 196 207 205 192 183 184 231 242 230 238 249 258 294 310 311 310 319 307 237 164 238 259 274 298 302 290 292 321 318 270 236 231 220 227 239 248 262
276 277 277 277 278 278 279 281 281 280 280 281 281 281 280 280 283 287 289 289 290 293 294 293 294 297 300 298 291 295 293 286 299 312 319 317 307 303 268 234 223 229 191 169 192 184 170 178 180 186 193 197 199 188 186 196 204 223 226 207 231 248 256 306 325 316 316 325 310 259 196 242 264 303 308 304 288 283 320 333 259 219 235 229 225 233 238 247
276 276 276 277 277 277 276 277 278 279 279 279 279 279 279 282 285 287 287 287 287 288 289 289 291 292 293 292 290 290 286 283 299 306 306 302 295 292 269 234 225 232 199 178 193 193 178 180 188 195 195 196 195 194 210 215 210 224 223 202 200 205 202 316 311 299 300 308 300 269 226 235 268 290 292 296 289 285 306 318 282 238 249 244 232 229 230 236
275 274 274 274 274 275 274 273 275 277 277 278 278 278 279 281 283 283 284 285 285 285 286 286 283 284 287 285 279 280 280 283 301 301 293 287 283 274 259 242 227 231 220 202 202 201 190 183 189 192 190 195 199 201 227 232 211 226 208 191 194 192 194 258 271 279 284 281 278 267 245 236 247 261 272 284 284 282 284 286 280 262 258 249 236 229 225 228
274 274 273 273 272 273 273 272 273 274 275 277 276 276 277 279 280 281 282 282 282 282 284 281 277 278 281 275 271 273 273 278 295 292 280 276 273 260 258 252 237 240 239 224 204 195 192 190 194 194 186 190 197 195 226 244 219 199 171 178 190 206 224 238 247 259 265 268 274 277 277 267 245 248 261 273 274 272 270 282 285 268 261 251 234 224 215 217
275 275 274 274 273 273 274 273 273 274 275 275 275 276 277 278 279 279 279 280 279 280 280 278 275 273 269 265 265 263 261 267 280 276 276 275 267 262 257 252 251 248 250 241 211 195 192 191 193 204 205 225 214 196 191 171 156 150 157 177 197 209 222 237 250 256 258 266 278 285 294 286 241 241 260 261 259 262 266 292 303 279 266 251 225 211 204 210
276 276 276 275 274 273 274 275 274 274 274 275 276 276 277 278 277 277 278 277 275 276 276 273 270 266 259 256 255 253 254 255 247 251 269 268 265 274 268 264 265 250 250 251 228 225 212 187 168 137 258 216 211 194 161 147 148 163 173 183 200 207 215 228 247 257 255 261 270 276 289 284 237 227 251 253 246 250 257 270 306 296 275 243 212 199 200 209
278 278 277 277 275 274 274 276 277 275 274 274 274 275 277 278 276 276 277 273 271 273 267 263 262 255 250 252 252 254 255 246 235 242 255 258 265 277 273 270 270 254 242 192 177 231 185 146 121 86 74 169 208 198 177 172 176 187 186 187 199 206 212 219 228 240 243 250 260 269 280 275 238 217 238 246 240 237 246 252 272 299 290 236 202 195 203 211
280 279 277 276 276 275 274 276 277 275 274 273 273 274 275 275 276 280 274 264 265 262 252 253 258 254 256 259 254 254 253 246 243 242 239 253 268 269 266 263 257 255 231 175 156 160 143 125 98 75 67 39 327 241 226 210 203 207 206 204 209 215 218 217 223 232 236 242 254 263 267 259 236 227 237 243 241 238 245 250 256 279 290 231 199 195 205 214
282 279 276 274 275 275 275 275 274 274 274 273 272 271 270 272 277 269 250 246 240 237 241 244 249 258 260 255 258 260 257 252 247 239 234 242 251 253 258 257 249 246 224 189 165 159 150 131 90 66 65 27 353 276 218 211 212 222 226 223 222 230 239 224 222 230 235 238 248 255 256 251 244 241 240 242 244 245 250 251 248 258 270 225 203 206 215 219
282 279 276 273 274 275 275 273 272 272 272 271 271 268 266 268 266 246 236 231 218 220 235 235 239 253 213 167 276 298 268 260 245 230 229 219 217 230 241 248 239 209 197 189 167 160 154 143 104 72 73 18 0 298 198 184 189 216 229 230 224 228 257 246 218 223 230 233 239 245 246 248 244 237 237 243 247 246 250 253 245 240 244 214 206 220 225 225
280 278 276 275 273 273 273 271 270 270 269 268 268 265 262 259 249 241 228 218 215 216 230 234 238 246 199 183 241 280 276 266 249 232 227 212 205 215 223 234 227 201 184 179 169 166 160 148 109 97 103 34 2 357 217 207 206 216 222 227 225 228 246 244 220 220 225 230 239 239 231 235 239 238 239 250 261 259 255 258 248 232 227 211 202 216 223 229
280 276 275 274 273 272 271 269 268 267 266 266 263 261 260 249 235 232 214 202 207 215 230 238 248 260 236 194 203 350 331 275 248 231 215 206 197 193 192 197 220 217 187 173 172 180 182 179 191 152 134 39 348 341 307 266 247 229 202 199 212 219 229 234 227 222 224 238 249 239 224 232 245 251 245 249 273 273 264 261 253 235 224 218 207 208 218 232
281 279 276 274 273 271 269 267 266 265 264 262 260 258 255 239 226 225 216 207 211 222 233 239 248 259 260 224 95 46 340 300 255 233 196 190 185 185 207 210 227 220 176 168 170 170 178 182 166 130 78 16 342 325 301 277 277 266 214 190 192 206 218 225 224 219 222 247 260 255 252 256 262 260 250 239 254 268 267 265 261 251 245 239 227 224 233 244
284 282 278 275 273 271 269 267 264 263 261 260 258 253 244 233 225 222 220 217 222 232 232 233 239 226 220 248 235 298 310 305 280 277 219 180 141 142 219 181 186 195 173 170 171 154 151 146 137 106 42 11 337 324 286 257 260 271 253 215 200 211 218 216 226 224 223 255 258 256 257 259 274 272 257 250 245 255 265 272 267 254 251 250 244 243 246 254
287 285 281 276 273 270 267 265 263 261 259 257 254 246 235 228 223 218 219 220 223 228 226 229 229 195 191 225 237 235 248 256 278 298 314 315 77 110 187 165 131 171 178 181 177 172 173 146 137 122 52 328 318 328 287 255 231 233 243 228 214 219 205 209 230 214 164 272 251 237 242 233 212 229 249 253 246 236 249 279 287 273 259 252 250 249 245 246
287 286 282 276 273 270 266 264 262 259 257 253 246 238 228 221 219 216 216 218 216 219 223 223 217 196 191 204 214 218 214 212 244 272 289 303 317 112 81 219 206 145 186 193 178 162 183 160 139 133 156 271 298 310 298 295 213 203 230 227 212 203 178 188 230 194 181 257 257 255 257 244 229 233 237 237 237 237 246 267 287 295 289 280 272 266 258 250
286 284 281 275 271 269 267 264 262 259 254 248 240 232 225 219 217 215 215 218 217 216 218 218 213 201 193 193 201 214 213 201 209 225 234 252 259 167 44 15 275 327 195 195 182 172 185 183 193 200 192 242 281 253 315 318 216 192 207 202 180 184 187 193 198 192 217 252 257 262 261 254 255 255 244 241 244 246 250 261 276 288 291 290 288 283 277 269
284 279 278 276 271 269 269 266 264 262 255 248 240 233 227 222 219 217 216 218 220 217 214 212 209 200 196 196 199 210 214 205 201 211 217 214 209 264 311 310 296 295 216 198 195 191 188 180 192 211 211 232 264 249 319 333 235 193 185 180 209 218 216 220 216 223 251 260 258 263 265 265 268 267 264 263 258 250 254 277 295 295 292 285 282 285 283 274
280 275 271 271 270 269 270 269 266 264 258 253 247 237 230 224 220 219 218 216 216 216 210 207 208 207 204 204 201 205 211 209 204 209 212 207 195 201 250 277 284 275 246 228 222 205 195 186 186 201 209 206 213 221 250 323 221 191 184 204 250 238 232 235 233 242 255 253 248 253 260 265 266 267 271 272 265 261 268 282 289 291 290 281 278 282 270 240
275 272 268 266 266 266 268 269 268 264 262 260 254 247 239 230 221 217 216 213 210 213 211 208 213 215 209 205 203 203 205 204 204 211 214 210 201 199 219 254 267 263 258 257 251 233 219 206 196 200 211 208 208 214 212 219 214 201 211 228 225 216 221 226 230 236 241 240 241 246 252 258 262 267 270 273 274 270 269 277 282 285 285 279 281 280 254 235
271 270 266 265 267 267 266 267 264 259 259 258 253 248 243 237 229 221 214 210 207 210 212 211 217 219 215 210 206 204 206 205 202 209 215 215 210 203 200 202 221 242 253 254 244 234 232 227 214 209 214 212 211 213 214 222 221 208 224 238 230 214 225 239 247 250 248 245 248 252 257 260 264 268 270 272 275 273 271 273 268 267 274 282 284 277 264 260
271 268 265 264 266 265 262 260 257 254 254 254 252 246 237 231 228 223 217 212 209 209 210 212 217 221 219 216 212 210 213 211 206 208 213 215 212 205 200 199 204 224 243 249 245 232 228 228 220 213 216 213 207 208 214 225 227 214 218 230 228 220 224 235 249 256 257 257 260 263 265 263 262 265 267 269 275 282 281 263 251 258 280 300 297 286 278 276
270 268 265 261 259 259 258 257 259 259 258 258 260 256 246 233 225 225 225 221 217 214 214 214 217 220 220 218 218 219 220 217 212 209 210 211 208 206 211 211 205 209 230 248 259 244 224 222 218 211 212 212 209 211 215 219 223 223 221 222 222 222 227 237 250 258 258 259 262 265 267 265 264 269 271 271 276 279 261 255 268 285 303 318 318 309 301 296
268 267 265 260 255 255 256 256 257 257 255 253 254 256 254 243 229 224 225 224 222 220 218 217 217 218 217 216 217 219 220 218 215 212 208 206 206 210 217 218 208 198 209 235 254 241 220 221 225 218 214 214 215 219 223 223 225 227 226 228 232 234 237 244 254 268 271 268 267 266 264 263 265 270 271 266 263 260 246 244 266 287 297 304 311 311 307 303
266 265 263 259 254 251 251 251 250 249 249 248 245 246 251 247 235 228 224 223 226 225 220 218 220 218 214 212 213 217 219 219 216 215 210 205 206 212 215 216 211 199 195 212 228 226 220 227 236 233 227 224 223 224 227 229 233 235 233 235 238 233 233 240 255 276 283 277 270 267 265 264 263 262 263 261 255 251 243 237 247 269 280 283 290 302 306 308
264 262 261 259 254 249 248 248 247 246 247 247 245 241 240 239 238 236 228 224 229 233 226 217 217 217 214 214 213 213 218 219 216 215 213 209 210 212 209 208 209 203 199 207 217 219 221 230 241 242 238 234 231 229 228 230 239 246 240 233 226 219 223 245 267 272 275 272 270 272 276 279 274 262 257 256 252 255 258 255 259 265 267 270 273 282 295 310
264 260 258 257 254 249 246 246 246 245 245 245 243 239 236 234 233 234 232 227 229 236 234 222 215 213 211 214 215 212 214 218 216 215 215 215 217 216 208 202 206 208 208 212 218 220 218 221 233 239 239 240 240 237 235 237 243 250 237 218 206 200 215 248 259 260 266 269 272 280 288 296 295 274 260 259 261 271 279 275 271 268 267 270 272 274 285 299
264 259 256 255 254 250 246 244 244 243 243 243 241 239 238 236 233 232 234 232 227 229 234 231 222 215 210 212 215 215 215 217 216 216 218 217 218 217 210 203 207 214 215 215 218 221 220 219 224 229 233 238 241 237 235 236 238 241 228 210 202 199 217 240 251 257 263 266 268 274 281 289 292 279 268 274 279 282 284 281 278 275 273 277 280 282 287 293
263 258 254 252 252 250 246 244 242 240 239 240 241 241 241 239 236 232 233 234 232 228 229 229 227 222 215 213 216 217 217 217 216 216 218 216 215 215 213 209 209 214 218 220 223 226 228 227 226 228 230 230 229 225 223 226 228 229 218 200 196 203 218 233 247 252 255 261 266 271 275 279 281 279 279 286 286 281 280 277 275 274 276 278 281 283 285 286
Height
5909 5908 5908 5908 5907 5907 5907 5906 5906 5905 5905 5904 5904 5903 5902 5902 5901 5901 5900 5900 5899 5899 5898 5898 5898 5897 5897 5897 5896 5896 5896 5895 5895 5895 5895 5894 5894 5894 5894 5893 5893 5894 5895 5897 5897 5896 5895 5895 5896 5896 5896 5895 5895 5894 5894 5894 5894 5894 5893 5893 5893 5894 5894 5894 5894 5895 5895 5894 5895 5895 5894 5895 5895 5894 5893 5893 5894 5895 5895 5896 5896 5895 5895 5895 5895 5895 5896 5897
5909 5909 5909 5908 5908 5908 5907 5907 5906 5906 5905 5905 5904 5904 5903 5902 5902 5901 5901 5900 5899 5899 5898 5898 5897 5897 5897 5896 5896 5896 5895 5895 5895 5894 5894 5894 5894 5894 5893 5893 5893 5893 5895 5896 5896 5896 5895 5896 5896 5897 5897 5896 5896 5895 5895 5895 5895 5894 5894 5894 5894 5894 5893 5893 5894 5894 5895 5895 5896 5895 5895 5895 5895 5895 5894 5893 5894 5895 5895 5896 5895 5895 5895 5894 5895 5896 5896 5896
5910 5910 5909 5909 5909 5908 5908 5908 5907 5907 5906 5905 5905 5904 5904 5903 5902 5902 5901 5900 5900 5899 5898 5898 5897 5897 5896 5896 5895 5895 5894 5894 5894 5894 5893 5893 5893 5893 5893 5892 5892 5893 5894 5895 5896 5896 5895 5895 5897 5898 5897 5897 5897 5896 5895 5895 5895 5895 5894 5895 5895 5895 5894 5895 5895 5894 5895 5896 5896 5895 5895 5895 5895 5895 5894 5894 5894 5894 5895 5895 5895 5895 5896 5895 5895 5895 5895 5896
5910 5910 5910 5909 5909 5909 5908 5908 5908 5907 5907 5906 5905 5905 5904 5903 5903 5902 5901 5900 5900 5899 5898 5898 5897 5896 5896 5895 5895 5895 5894 5894 5894 5893 5893 5893 5893 5892 5892 5892 5891 5892 5893 5894 5895 5896 5895 5895 5897 5897 5897 5897 5897 5897 5896 5896 5896 5895 5895 5895 5895 5895 5895 5895 5895 5895 5896 5896 5896 5896 5895 5895 5895 5895 5894 5894 5894 5894 5894 5895 5895 5896 5897 5897 5896 5896 5895 5895
5911 5910 5910 5910 5909 5909 5909 5908 5908 5907 5907 5906 5906 5905 5905 5904 5903 5902 5901 5901 5900 5899 5898 5898 5897 5896 5896 5895 5895 5894 5893 5893 5893 5892 5892 5892 5892 5892 5892 5891 5891 5891 5892 5892 5893 5894 5895 5896 5897 5896 5897 5897 5896 5897 5897 5896 5896 5896 5895 5895 5896 5896 5896 5896 5895 5896 5896 5897 5897 5897 5896 5895 5896 5895 5895 5894 5895 5895 5894 5894 5895 5895 5896 5897 5897 5896 5895 5895
5911 5911 5910 5910 5910 5909 5909 5908 5908 5908 5907 5907 5906 5906 5905 5904 5903 5902 5902 5901 5900 5899 5898 5898 5897 5896 5895 5895 5894 5893 5893 5892 5892 5892 5892 5891 5892 5892 5891 5891 5891 5891 5891 5891 5891 5891 5893 5895 5896 5895 5895 5896 5895 5896 5897 5897 5897 5896 5896 5896 5896 5896 5896 5896 5896 5896 5897 5898 5898 5898 5896 5896 5896 5896 5895 5895 5895 5895 5895 5895 5895 5895 5896 5896 5896 5896 5896 5896
5911 5910 5910 5910 5910 5909 5909 5908 5908 5908 5907 5907 5906 5906 5905 5904 5904 5903 5902 5901 5900 5899 5898 5898 5897 5896 5895 5894 5893 5893 5892 5892 5891 5891 5891 5891 5891 5891 5891 5891 5891 5891 5890 5890 5890 5890 5890 5893 5894 5894 5894 5894 5895 5896 5897 5897 5897 5897 5897 5897 5897 5896 5896 5897 5897 5897 5897 5898 5899 5898 5897 5896 5896 5896 5895 5895 5895 5895 5895 5895 5895 5895 5895 5895 5895 5895 5896 5897
5910 5910 5910 5910 5910 5909 5909 5908 5908 5907 5907 5906 5906 5905 5905 5904 5904 5903 5902 5901 5900 5899 5898 5897 5897 5896 5895 5894 5893 5892 5891 5891 5891 5890 5890 5890 5890 5890 5890 5890 5890 5890 5890 5890 5890 5890 5891 5892 5892 5893 5894 5894 5895 5896 5896 5896 5897 5897 5897 5898 5898 5898 5898 5898 5898 5898 5898 5899 5899 5898 5897 5897 5897 5896 5895 5895 5895 5895 5894 5894 5895 5895 5895 5895 5895 5895 5895 5896
5910 5910 5910 5910 5909 5909 5908 5908 5908 5907 5907 5906 5906 5905 5905 5904 5904 5903 5902 5901 5900 5899 5898 5897 5896 5896 5894 5893 5893 5892 5891 5890 5890 5890 5889 5889 5889 5890 5889 5889 5890 5890 5890 5890 5890 5890 5891 5891 5892 5893 5893 5894 5895 5896 5896 5896 5897 5897 5897 5898 5899 5899 5899 5899 5899 5899 5899 5899 5899 5899 5898 5898 5897 5896 5895 5895 5894 5895 5894 5894 5894 5895 5895 5894 5895 5895 5895 5896
5910 5910 5909 5909 5909 5908 5908 5908 5907 5907 5906 5906 5905 5905 5905 5904 5903 5903 5902 5901 5900 5899 5898 5897 5896 5895 5894 5893 5892 5891 5890 5890 5889 5889 5889 5888 5888 5889 5889 5889 5889 5889 5889 5889 5889 5890 5890 5891 5891 5893 5894 5894 5895 5896 5896 5896 5897 5897 5898 5898 5898 5899 5899 5900 5899 5899 5899 5899 5899 5899 5898 5898 5897 5896 5895 5894 5894 5894 5894 5894 5894 5894 5894 5894 5895 5895 5895 5895
5909 5909 5909 5909 5908 5908 5908 5907 5907 5906 5906 5905 5905 5905 5904 5904 5903 5902 5902 5901 5900 5899 5898 5897 5896 5895 5894 5893 5892 5891 5890 5889 5889 5888 5888 5888 5888 5888 5888 5888 5888 5888 5888 5888 5889 5889 5890 5891 5891 5892 5894 5894 5895 5896 5896 5897 5897 5897 5898 5898 5898 5898 5899 5899 5899 5899 5899 5899 5899 5899 5898 5898 5897 5896 5894 5894 5894 5894 5894 5894 5894 5894 5894 5894 5895 5895 5895 5895
5909 5908 5908 5908 5908 5907 5907 5907 5906 5906 5905 5905 5904 5904 5903 5903 5903 5902 5901 5901 5900 5899 5898 5897 5896 5895 5893 5892 5891 5890 5889 5889 5888 5887 5887 5887 5887 5887 5887 5887 5887 5888 5888 5888 5888 5889 5889 5890 5891 5892 5893 5894 5895 5896 5896 5897 5897 5897 5898 5899 5899 5899 5899 5899 5899 5899 5899 5899 5899 5899 5898 5897 5896 5896 5894 5894 5894 5894 5894 5894 5894 5894 5894 5894 5894 5894 5894 5894
5908 5908 5907 5907 5907 5906 5906 5906 5905 5905 5904 5904 5904 5903 5903 5902 5902 5901 5901 5900 5899 5899 5898 5897 5896 5894 5893 5892 5891 5889 5888 5888 5887 5887 5886 5886 5886 5886 5886 5886 5886 5887 5887 5887 5888 5888 5888 5889 5890 5891 5893 5894 5895 5896 5896 5896 5896 5897 5898 5899 5899 5899 5899 5899 5899 5899 5899 5899 5899 5898 5898 5897 5896 5896 5895 5893 5894 5894 5894 5894 5894 5893 5894 5894 5894 5894 5894 5894
5907 5907 5907 5906 5906 5905 5905 5905 5904 5904 5904 5903 5903 5902 5902 5901 5901 5901 5900 5900 5899 5898 5897 5896 5895 5894 5893 5892 5891 5889 5888 5887 5886 5886 5885 5885 5885 5885 5885 5885 5885 5886 5886 5887 5887 5887 5888 5888 5890 5891 5892 5894 5895 5895 5896 5896 5895 5896 5898 5898 5899 5899 5899 5899 5899 5899 5899 5899 5898 5898 5897 5896 5896 5895 5895 5894 5894 5894 5894 5895 5894 5894 5893 5894 5894 5894 5894 5894
5906 5906 5905 5905 5905 5904 5904 5904 5903 5903 5902 5902 5902 5901 5901 5900 5900 5900 5899 5899 5898 5897 5897 5896 5895 5894 5893 5891 5890 5889 5888 5887 5885 5885 5885 5884 5884 5884 5884 5884 5884 5885 5885 5886 5886 5887 5887 5888 5889 5890 5891 5893 5894 5895 5896 5896 5895 5896 5897 5898 5899 5899 5899 5899 5898 5898 5898 5898 5898 5897 5897 5896 5896 5895 5894 5894 5894 5894 5895 5895 5895 5894 5893 5893 5893 5893 5894 5895
5905 5904 5904 5904 5903 5903 5903 5902 5902 5901 5901 5901 5900 5900 5900 5899 5899 5898 5898 5898 5897 5897 5896 5895 5894 5893 5892 5891 5890 5888 5887 5886 5885 5884 5884 5883 5883 5883 5883 5883 5883 5883 5884 5885 5885 5886 5886 5887 5888 5889 5890 5891 5893 5894 5895 5896 5895 5896 5897 5898 5899 5899 5899 5899 5898 5898 5897 5897 5897 5897 5897 5896 5896 5895 5895 5895 5894 5894 5895 5895 5895 5894 5894 5893 5893 5894 5894 5895
5903 5903 5903 5902 5902 5902 5901 5901 5900 5900 5900 5899 5899 5898 5898 5898 5898 5897 5897 5896 5896 5896 5895 5894 5893 5893 5891 5890 5889 5888 5887 5886 5885 5884 5883 5883 5882 5882 5882 5882 5882 5883 5883 5884 5885 5885 5885 5886 5888 5888 5889 5890 5891 5892 5893 5894 5895 5894 5895 5896 5898 5898 5898 5898 5898 5897 5897 5897 5897 5897 5897 5896 5896 5895 5894 5895 5895 5895 5895 5895 5895 5895 5894 5894 5894 5894 5894 5894
5901 5901 5901 5901 5900 5900 5900 5899 5899 5898 5898 5898 5897 5897 5897 5896 5896 5896 5895 5895 5895 5894 5894 5893 5892 5892 5891 5889 5888 5887 5886 5885 5884 5883 5882 5882 5881 5881 5882 5881 5881 5882 5882 5883 5884 5884 5885 5886 5887 5887 5888 5889 5890 5891 5891 5892 5893 5893 5893 5895 5897 5898 5897 5897 5897 5896 5896 5896 5896 5896 5896 5896 5896 5895 5894 5894 5895 5895 5895 5895 5895 5895 5895 5894 5894 5894 5894 5894
5899 5899 5899 5899 5898 5898 5898 5897 5897 5896 5896 5895 5895 5895 5895 5894 5894 5894 5894 5893 5893 5893 5893 5892 5891 5891 5890 5889 5887 5886 5885 5885 5883 5882 5882 5881 5881 5880 5880 5880 5881 5881 5881 5882 5882 5883 5884 5885 5886 5886 5888 5889 5889 5889 5890 5890 5891 5892 5892 5894 5896 5898 5897 5897 5897 5896 5896 5896 5896 5896 5896 5895 5895 5895 5894 5894 5894 5895 5895 5895 5894 5895 5895 5895 5894 5894 5894 5894
5897 5897 5897 5896 5896 5896 5896 5895 5895 5894 5894 5893 5893 5893 5893 5892 5892 5892 5892 5892 5892 5891 5891 5891 5890 5889 5889 5888 5886 5885 5885 5884 5883 5882 5881 5880 5880 5879 5879 5880 5880 5880 5880 5881 5881 5882 5883 5884 5885 5885 5886 5887 5887 5888 5888 5889 5889 5890 5891 5893 5895 5896 5897 5896 5896 5895 5895 5896 5896 5896 5896 5895 5895 5895 5894 5894 5894 5894 5894 5894 5894 5894 5894 5894 5894 5894 5894 5894
5895 5895 5894 5894 5893 5893 5893 5893 5893 5892 5892 5891 5891 5891 5891 5890 5891 5891 5890 5890 5890 5890 5889 5889 5888 5888 5887 5887 5885 5884 5884 5883 5882 5881 5880 5879 5879 5878 5878 5879 5879 5879 5879 5880 5881 5881 5882 5883 5884 5884 5886 5887 5888 5888 5888 5888 5888 5889 5890 5892 5894 5895 5895 5895 5895 5894 5894 5895 5895 5896 5896 5895 5894 5894 5894 5894 5894 5894 5893 5893 5893 5893 5893 5894 5894 5895 5894 5895
5892 5892 5891 5891 5891 5890 5890 5890 5890 5889 5889 5889 5889 5888 5888 5888 5889 5889 5888 5888 5887 5888 5888 5887 5887 5886 5886 5885 5884 5883 5883 5882 5881 5879 5879 5878 5878 5878 5877 5877 5878 5878 5879 5879 5880 5880 5881 5883 5883 5884 5885 5886 5887 5887 5887 5887 5887 5889 5890 5892 5893 5893 5894 5894 5894 5893 5893 5894 5894 5895 5895 5895 5894 5894 5894 5894 5894 5893 5892 5892 5892 5892 5893 5893 5893 5894 5894 5895
5889 5889 5889 5888 5888 5888 5887 5887 5887 5887 5887 5887 5887 5886 5886 5886 5886 5886 5887 5886 5885 5885 5886 5884 5884 5884 5884 5883 5882 5882 5882 5881 5879 5878 5878 5877 5877 5877 5876 5876 5877 5877 5878 5879 5879 5879 5880 5882 5883 5883 5884 5884 5885 5885 5885 5886 5888 5889 5890 5892 5893 5892 5893 5894 5893 5892 5892 5893 5893 5893 5894 5894 5894 5893 5893 5894 5894 5893 5892 5891 5891 5891 5892 5892 5892 5892 5893 5894
5887 5887 5886 5885 5885 5885 5885 5884 5883 5884 5884 5885 5884 5883 5882 5882 5883 5883 5884 5885 5883 5883 5883 5882 5881 5881 5881 5881 5880 5880 5881 5880 5878 5877 5877 5876 5876 5876 5875 5875 5876 5876 5877 5878 5878 5878 5879 5881 5881 5881 5881 5882 5882 5882 5884 5886 5887 5888 5889 5891 5892 5892 5893 5893 5892 5891 5890 5891 5892 5892 5892 5893 5892 5892 5892 5893 5893 5892 5892 5891 5890 5890 5891 5891 5892 5892 5892 5893
5884 5884 5883 5883 5882 5882 5882 5881 5880 5881 5881 5882 5881 5880 5880 5880 5880 5881 5881 5882 5881 5880 5880 5880 5879 5879 5879 5879 5878 5878 5878 5878 5876 5875 5876 5876 5875 5875 5874 5874 5875 5875 5876 5877 5877 5877 5878 5879 5880 5880 5881 5882 5882 5882 5883 5884 5886 5886 5888 5890 5891 5891 5891 5890 5890 5888 5889 5890 5889 5889 5891 5892 5891 5891 5891 5892 5892 5891 5891 5890 5890 5890 5890 5890 5891 5891 5892 5893
5881 5881 5880 5880 5880 5879 5879 5879 5878 5877 5878 5878 5878 5877 5876 5876 5877 5877 5877 5878 5878 5877 5878 5878 5877 5877 5877 5877 5877 5876 5876 5876 5875 5874 5874 5874 5874 5874 5873 5873 5874 5874 5875 5875 5876 5877 5877 5878 5879 5879 5880 5881 5881 5882 5882 5883 5885 5886 5887 5888 5889 5889 5888 5888 5887 5886 5887 5888 5887 5887 5890 5891 5891 5890 5890 5891 5891 5890 5890 5889 5889 5889 5888 5889 5890 5890 5891 5892
5877 5877 5877 5876 5876 5875 5875 5876 5875 5874 5874 5874 5874 5873 5873 5873 5873 5874 5874 5875 5875 5875 5875 5875 5875 5875 5875 5874 5875 5874 5874 5874 5873 5873 5873 5873 5873 5873 5872 5872 5873 5873 5874 5874 5875 5875 5876 5877 5878 5878 5878 5879 5880 5881 5881 5882 5883 5885 5887 5887 5887 5887 5886 5885 5885 5885 5885 5886 5886 5886 5888 5889 5890 5889 5890 5890 5890 5889 5889 5888 5888 5888 5887 5887 5887 5888 5890 5891
5873 5873 5872 5871 5872 5872 5870 5871 5871 5870 5870 5870 5869 5869 5869 5870 5870 5870 5870 5871 5872 5872 5872 5872 5872 5873 5873 5872 5872 5872 5871 5872 5872 5871 5871 5871 5871 5871 5871 5871 5872 5872 5873 5874 5874 5874 5874 5875 5876 5877 5877 5878 5879 5880 5880 5881 5883 5885 5886 5886 5885 5885 5884 5884 5884 5885 5884 5885 5885 5885 5886 5888 5889 5889 5889 5889 5889 5888 5887 5887 5887 5886 5886 5885 5885 5887 5889 5890
5868 5869 5868 5866 5867 5868 5866 5866 5867 5866 5867 5866 5865 5865 5865 5866 5866 5866 5867 5868 5868 5869 5869 5868 5869 5870 5870 5869 5869 5869 5869 5870 5870 5870 5870 5870 5870 5870 5870 5870 5871 5871 5871 5873 5873 5873 5872 5873 5874 5876 5876 5877 5878 5879 5879 5880 5882 5883 5883 5884 5883 5883 5884 5884 5884 5885 5884 5884 5885 5885 5885 5887 5888 5888 5888 5888 5888 5887 5886 5886 5885 5885 5884 5884 5884 5886 5888 5889
5864 5865 5864 5862 5862 5863 5862 5862 5862 5862 5863 5863 5862 5862 5862 5863 5862 5863 5864 5864 5864 5866 5866 5865 5866 5867 5867 5866 5866 5866 5866 5868 5869 5869 5869 5868 5868 5868 5868 5869 5869 5870 5870 5871 5872 5872 5872 5873 5874 5875 5876 5876 5878 5878 5879 5879 5879 5880 5881 5882 5882 5883 5883 5884 5884 5884 5884 5884 5885 5885 5885 5886 5887 5887 5886 5886 5886 5886 5885 5884 5884 5884 5883 5883 5883 5884 5886 5888
5860 5861 5860 5858 5857 5858 5859 5859 5858 5858 5859 5859 5859 5859 5859 5859 5859 5861 5861 5860 5862 5862 5862 5862 5863 5864 5865 5864 5864 5864 5864 5865 5866 5867 5867 5867 5866 5866 5867 5868 5868 5869 5869 5870 5871 5872 5872 5873 5873 5874 5875 5876 5877 5878 5879 5878 5877 5878 5879 5880 5881 5882 5882 5883 5883 5883 5883 5884 5884 5884 5884 5884 5885 5886 5885 5884 5884 5884 5884 5883 5883 5883 5882 5882 5882 5884 5885 5886
5857 5856 5856 5855 5854 5854 5855 5855 5855 5855 5855 5856 5856 5856 5856 5856 5858 5858 5857 5858 5860 5859 5859 5860 5860 5861 5862 5861 5861 5862 5862 5863 5864 5865 5865 5865 5865 5865 5866 5866 5867 5868 5868 5869 5870 5870 5871 5871 5872 5873 5874 5875 5876 5876 5877 5877 5877 5877 5877 5878 5879 5881 5882 5882 5882 5882 5882 5883 5883 5883 5882 5883 5884 5884 5883 5883 5883 5883 5883 5883 5882 5882 5882 5882 5882 5883 5884 5885
5853 5852 5851 5851 5850 5850 5851 5851 5851 5851 5852 5852 5853 5853 5853 5854 5855 5855 5855 5857 5857 5856 5856 5857 5856 5857 5859 5859 5860 5861 5862 5861 5861 5863 5864 5864 5864 5864 5865 5865 5865 5867 5867 5868 5868 5869 5870 5871 5871 5872 5873 5874 5875 5875 5875 5875 5875 5876 5876 5877 5878 5879 5880 5880 5880 5880 5881 5882 5881 5881 5881 5882 5883 5882 5882 5882 5882 5882 5882 5882 5882 5881 5881 5881 5882 5882 5883 5884
5848 5848 5847 5846 5847 5847 5847 5847 5847 5847 5848 5848 5849 5850 5850 5852 5853 5853 5854 5855 5854 5853 5852 5852 5853 5854 5856 5857 5858 5860 5861 5860 5860 5861 5862 5862 5863 5863 5863 5864 5864 5865 5866 5867 5868 5868 5870 5870 5871 5871 5871 5872 5873 5874 5874 5874 5875 5875 5875 5875 5877 5879 5879 5879 5879 5879 5880 5880 5879 5880 5880 5881 5881 5881 5881 5881 5880 5880 5881 5881 5881 5881 5881 5881 5881 5881 5882 5882
5843 5843 5843 5842 5842 5843 5843 5843 5843 5843 5844 5844 5845 5846 5848 5850 5850 5850 5851 5852 5851 5849 5848 5848 5849 5850 5851 5855 5856 5857 5859 5859 5859 5860 5860 5860 5861 5861 5862 5863 5863 5864 5865 5866 5867 5867 5868 5868 5869 5869 5870 5871 5872 5873 5874 5874 5875 5874 5874 5874 5876 5878 5878 5878 5877 5878 5878 5878 5877 5878 5879 5879 5880 5880 5880 5880 5879 5879 5879 5879 5879 5880 5880 5880 5881 5881 5881 5881
5839 5839 5838 5837 5838 5838 5838 5839 5839 5839 5839 5840 5841 5843 5845 5847 5847 5847 5847 5847 5846 5845 5846 5847 5847 5847 5848 5852 5854 5855 5857 5858 5857 5858 5859 5859 5860 5860 5861 5862 5863 5864 5864 5865 5865 5865 5866 5866 5867 5869 5869 5870 5871 5872 5873 5873 5873 5874 5874 5874 5875 5876 5876 5876 5876 5876 5877 5877 5877 5877 5877 5878 5879 5879 5879 5879 5879 5878 5878 5878 5879 5879 5879 5880 5881 5881 5882 5881
5834 5834 5834 5833 5833 5833 5834 5834 5834 5835 5835 5836 5837 5840 5841 5842 5842 5843 5844 5844 5844 5845 5846 5847 5846 5847 5848 5850 5852 5853 5855 5856 5857 5857 5858 5859 5859 5859 5860 5861 5862 5863 5864 5863 5863 5864 5865 5865 5866 5867 5868 5869 5870 5872 5872 5871 5872 5873 5874 5873 5873 5874 5875 5875 5875 5875 5876 5876 5876 5876 5876 5876 5877 5877 5877 5877 5878 5878 5877 5877 5878 5878 5878 5879 5879 5880 5881 5881
5830 5830 5830 5829 5829 5829 5829 5829 5830 5830 5831 5832 5834 5836 5837 5838 5838 5839 5840 5841 5842 5844 5845 5844 5845 5846 5847 5848 5850 5852 5854 5855 5856 5857 5858 5858 5858 5859 5859 5860 5861 5862 5863 5863 5862 5863 5864 5864 5865 5866 5867 5868 5870 5871 5870 5870 5871 5872 5872 5872 5872 5873 5874 5874 5875 5875 5875 5875 5874 5875 5875 5876 5876 5876 5875 5876 5877 5877 5877 5876 5876 5877 5877 5878 5878 5879 5879 5879
5827 5827 5826 5825 5825 5825 5825 5826 5826 5827 5827 5828 5830 5831 5832 5833 5834 5834 5835 5836 5838 5840 5842 5842 5842 5844 5844 5845 5846 5848 5851 5853 5854 5856 5857 5857 5858 5858 5859 5859 5859 5861 5862 5862 5861 5862 5863 5864 5865 5865 5866 5867 5869 5870 5869 5869 5869 5870 5870 5871 5872 5872 5872 5873 5873 5874 5874 5873 5872 5873 5873 5874 5875 5875 5875 5875 5875 5876 5877 5876 5876 5876 5876 5876 5877 5877 5878 5878
5824 5824 5822 5821 5822 5822 5822 5822 5823 5823 5824 5825 5826 5827 5828 5829 5829 5830 5831 5833 5834 5836 5838 5839 5840 5841 5842 5842 5844 5846 5847 5848 5849 5851 5854 5855 5856 5857 5858 5859 5859 5859 5860 5861 5861 5861 5862 5863 5864 5864 5865 5866 5868 5869 5868 5868 5868 5868 5869 5871 5872 5872 5871 5872 5872 5872 5872 5872 5871 5871 5871 5872 5873 5873 5873 5873 5873 5875 5876 5876 5876 5876 5876 5876 5876 5876 5876 5877
5821 5821 5820 5818 5818 5819 5819 5819 5820 5820 5821 5821 5822 5823 5824 5825 5826 5826 5827 5830 5832 5833 5835 5837 5837 5839 5839 5840 5841 5843 5844 5845 5846 5848 5850 5852 5854 5856 5858 5858 5858 5859 5859 5860 5861 5860 5861 5862 5863 5863 5864 5866 5867 5868 5868 5867 5867 5868 5869 5871 5871 5871 5870 5871 5871 5871 5871 5872 5871 5870 5869 5870 5871 5872 5872 5872 5872 5873 5874 5874 5874 5875 5875 5875 5875 5875 5875 5875
5817 5818 5817 5815 5816 5817 5816 5817 5817 5817 5817 5818 5819 5820 5820 5822 5823 5823 5824 5827 5829 5831 5833 5833 5833 5835 5837 5839 5839 5840 5842 5844 5845 5846 5848 5849 5850 5852 5855 5857 5857 5857 5858 5859 5859 5860 5861 5861 5862 5862 5863 5864 5866 5867 5867 5867 5866 5867 5868 5869 5870 5870 5870 5870 5870 5870 5870 5870 5870 5868 5868 5868 5869 5870 5870 5870 5871 5872 5872 5873 5873 5873 5874 5874 5874 5874 5874 5874
5812 5813 5813 5812 5813 5815 5814 5814 5814 5814 5814 5815 5816 5817 5818 5819 5819 5820 5821 5823 5826 5828 5829 5829 5829 5831 5835 5837 5837 5838 5840 5842 5843 5844 5846 5847 5848 5849 5852 5855 5856 5855 5856 5857 5858 5858 5859 5860 5860 5862 5862 5863 5865 5865 5866 5865 5865 5866 5867 5867 5868 5869 5869 5868 5868 5868 5869 5869 5868 5867 5867 5867 5867 5868 5868 5869 5870 5871 5871 5872 5872 5872 5872 5873 5873 5873 5873 5873
5807 5808 5809 5809 5810 5812 5812 5811 5811 5810 5810 5812 5813 5814 5815 5816 5817 5817 5818 5819 5821 5824 5825 5826 5826 5829 5832 5834 5835 5835 5837 5838 5840 5841 5844 5846 5847 5847 5848 5849 5851 5852 5853 5855 5855 5856 5856 5857 5859 5860 5861 5862 5863 5863 5863 5863 5864 5865 5865 5866 5867 5867 5867 5866 5866 5866 5867 5867 5866 5866 5866 5866 5866 5866 5867 5867 5868 5870 5871 5871 5871 5870 5870 5871 5871 5871 5872 5872
5802 5802 5804 5806 5807 5807 5807 5807 5807 5807 5807 5808 5809 5810 5811 5812 5813 5814 5814 5815 5816 5818 5820 5822 5824 5826 5830 5832 5833 5834 5835 5836 5838 5840 5842 5845 5845 5845 5845 5844 5845 5848 5850 5851 5853 5854 5854 5854 5855 5858 5859 5860 5861 5862 5862 5862 5863 5864 5864 5864 5866 5866 5865 5865 5864 5864 5865 5865 5865 5865 5865 5864 5864 5865 5865 5865 5867 5868 5869 5869 5868 5868 5869 5869 5870 5870 5870 5870
5797 5797 5799 5802 5802 5802 5802 5803 5803 5804 5805 5806 5807 5807 5807 5808 5809 5810 5811 5811 5812 5814 5816 5819 5821 5824 5827 5830 5831 5832 5833 5834 5836 5838 5840 5842 5843 5843 5843 5843 5843 5844 5847 5849 5851 5852 5852 5851 5853 5855 5856 5857 5858 5859 5860 5860 5862 5863 5863 5863 5864 5864 5864 5864 5863 5863 5863 5864 5863 5863 5863 5863 5863 5863 5864 5864 5866 5866 5866 5866 5866 5867 5868 5868 5868 5868 5868 5868
5793 5793 5794 5796 5797 5796 5797 5798 5800 5800 5800 5802 5803 5803 5804 5806 5806 5806 5807 5808 5809 5810 5812 5815 5816 5818 5821 5824 5826 5827 5828 5830 5833 5835 5836 5839 5841 5840 5840 5842 5842 5842 5844 5846 5848 5849 5850 5850 5851 5852 5854 5855 5855 5857 5857 5858 5860 5860 5861 5862 5863 5862 5862 5862 5862 5862 5861 5861 5861 5861 5860 5861 5861 5861 5862 5863 5864 5864 5864 5865 5866 5866 5866 5866 5867 5867 5867 5866
5788 5787 5788 5790 5791 5791 5792 5792 5794 5795 5796 5797 5798 5800 5801 5802 5802 5802 5803 5804 5804 5805 5807 5810 5812 5814 5816 5818 5820 5821 5823 5826 5829 5831 5832 5835 5837 5837 5837 5839 5840 5840 5840 5841 5843 5845 5847 5848 5849 5851 5853 5853 5853 5854 5855 5856 5857 5857 5858 5860 5861 5860 5860 5860 5861 5860 5859 5859 5858 5858 5858 5858 5859 5859 5860 5861 5862 5862 5862 5864 5865 5865 5864 5865 5866 5866 5866 5866
5782 5782 5782 5783 5785 5786 5786 5787 5788 5790 5791 5792 5794 5796 5797 5797 5798 5798 5799 5800 5801 5801 5803 5805 5806 5808 5811 5812 5814 5817 5818 5820 5823 5826 5828 5830 5833 5834 5835 5836 5836 5838 5838 5837 5838 5839 5843 5846 5847 5848 5850 5851 5851 5851 5851 5852 5854 5854 5856 5858 5859 5858 5858 5859 5858 5857 5856 5856 5855 5855 5855 5856 5856 5857 5858 5859 5859 5860 5861 5862 5862 5862 5862 5863 5864 5865 5865 5865
5776 5776 5776 5777 5778 5779 5781 5781 5782 5785 5786 5787 5789 5790 5791 5792 5793 5793 5794 5795 5797 5798 5799 5800 5800 5802 5805 5807 5809 5811 5812 5814 5817 5820 5823 5827 5830 5832 5833 5833 5833 5835 5835 5835 5835 5836 5839 5842 5843 5845 5847 5848 5849 5849 5849 5850 5851 5851 5853 5855 5856 5856 5856 5856 5855 5854 5854 5853 5852 5852 5852 5853 5854 5854 5855 5856 5857 5858 5858 5858 5859 5859 5859 5860 5861 5862 5863 5863
5769 5770 5770 5771 5772 5773 5775 5776 5777 5779 5781 5781 5782 5784 5786 5787 5788 5789 5790 5790 5792 5793 5794 5796 5797 5797 5799 5801 5803 5805 5807 5809 5812 5815 5819 5823 5826 5828 5829 5830 5832 5833 5833 5834 5834 5834 5836 5838 5839 5841 5843 5845 5846 5848 5848 5848 5848 5849 5850 5852 5854 5854 5853 5853 5853 5853 5852 5852 5851 5850 5851 5851 5852 5852 5853 5854 5855 5855 5855 5855 5855 5855 5856 5856 5857 5858 5859 5859
5762 5763 5764 5765 5766 5767 5768 5770 5771 5773 5774 5775 5776 5779 5781 5783 5785 5786 5786 5786 5787 5788 5790 5792 5795 5795 5795 5796 5797 5799 5801 5803 5806 5810 5814 5818 5822 5824 5825 5828 5830 5830 5831 5832 5832 5831 5833 5836 5837 5838 5840 5842 5844 5845 5845 5845 5845 5846 5848 5850 5851 5851 5851 5851 5851 5851 5851 5850 5850 5849 5849 5849 5849 5850 5851 5852 5853 5853 5852 5852 5851 5852 5853 5853 5854 5854 5855 5856